EW3197 Weather Reports


Display with metric or nautical units.
time (UTC)temp
F
wind
direction
speed
MPH
gust
MPH
rain 1hr
in
rain 24hr
in
rain mn
in
humidity
%
barometer
mb
20260901140704 69 183 0.0 0.0 0.03 0.41 0.40 91 1015.2
20260901140204 69 183 0.0 0.0 0.03 0.41 0.40 91 1015.3
20260901135704 69 183 0.0 0.0 0.02 0.40 0.39 91 1015.3
20260901135203 69 183 0.0 0.0 0.02 0.40 0.39 91 1015.5
20260901134704 69 183 0.0 0.0 0.02 0.40 0.39 91 1015.5
20260901134203 68 183 0.0 1.0 0.02 0.39 0.38 91 1015.7
20260901133704 69 183 0.0 2.0 0.04 0.39 0.38 91 1015.5
20260901133204 69 183 1.0 3.0 0.05 0.38 0.37 91 1015.6
20260901132703 69 183 1.0 2.0 0.07 0.38 0.37 91 1015.7
20260901131704 69 183 1.0 2.0 0.08 0.38 0.37 91 1015.5
20260901131203 69 183 0.0 0.0 0.08 0.38 0.37 91 1015.4
20260901130703 69 183 0.0 1.0 0.08 0.38 0.37 91 1015.5
20260901130203 69 183 0.0 3.0 0.09 0.38 0.37 91 1015.5
20260901125704 69 183 1.0 2.0 0.09 0.38 0.37 91 1015.4
20260901124203 68 183 0.0 0.0 0.08 0.37 0.36 91 1015.6
20260901123203 68 183 1.0 2.0 0.04 0.33 0.32 91 1015.5
20260901122204 69 183 0.0 1.0 0.01 0.30 0.29 91 1015.7
20260901121203 68 183 0.0 0.0 0.02 0.30 0.29 91 1015.6
20260901120704 68 183 0.0 1.0 0.02 0.30 0.29 91 1015.6
20260901120204 68 183 0.0 0.0 0.01 0.29 0.28 91 1015.6
20260901115704 68 183 0.0 0.0 0.02 0.29 0.28 91 1015.5
20260901115204 68 183 0.0 0.0 0.03 0.29 0.28 91 1015.5
20260901114704 68 183 0.0 1.0 0.03 0.29 0.28 91 1015.5
20260901114203 68 183 0.0 1.0 0.11 0.29 0.28 91 1015.5
20260901112704 68 183 0.0 0.0 0.15 0.29 0.28 91 1015.3
20260901112204 68 183 0.0 0.0 0.16 0.29 0.28 91 1015.3
20260901111204 68 183 0.0 0.0 0.16 0.28 0.27 91 1015.4
20260901110705 68 183 0.0 0.0 0.16 0.28 0.27 91 1015.4
20260901105703 68 183 0.0 1.0 0.18 0.27 0.26 90 1015.2
20260901104704 68 173 0.0 1.0 0.20 0.26 0.25 90 1015.0
20260901104203 68 173 0.0 1.0 0.13 0.18 0.17 90 1015.5
20260901103204 68 173 0.0 1.0 0.10 0.14 0.13 90 1015.0
20260901102703 68 173 0.0 0.0 0.10 0.14 0.13 90 1015.1
20260901102203 68 173 0.0 1.0 0.09 0.13 0.12 90 1015.1
20260901101703 67 173 0.0 3.0 0.09 0.12 0.11 90 1015.1
20260901101203 68 160 0.0 3.0 0.10 0.12 0.11 90 1015.0
20260901100703 68 156 0.0 2.0 0.10 0.12 0.11 90 1015.0
20260901100204 68 156 0.0 0.0 0.08 0.10 0.09 90 1014.9
20260901095703 68 156 0.0 0.0 0.07 0.09 0.08 90 1015.0
20260901095203 68 156 0.0 0.0 0.06 0.08 0.07 90 1015.0
20260901094703 68 156 0.0 0.0 0.04 0.06 0.05 90 1015.0
20260901094203 68 156 0.0 0.0 0.03 0.05 0.04 90 1015.0
20260901093203 68 156 0.0 0.0 0.02 0.04 0.03 90 1015.1
20260901092703 68 156 0.0 0.0 0.02 0.04 0.03 90 1015.1
20260901092203 68 156 0.0 1.0 0.02 0.04 0.03 90 1015.2
20260901091704 68 156 0.0 1.0 0.01 0.03 0.02 90 1015.3
20260901091204 68 156 0.0 0.0 0.00 0.02 0.01 90 1015.2
20260901090704 67 156 0.0 0.0 0.00 0.02 0.01 90 1015.2
20260901090204 67 156 0.0 0.0 0.00 0.02 0.01 90 1015.3
20260901085703 67 156 0.0 0.0 0.01 0.02 0.01 90 1015.4
20260901085203 67 156 0.0 0.0 0.01 0.02 0.01 90 1015.5
20260901084703 67 156 0.0 1.0 0.01 0.02 0.01 90 1015.6
20260901084204 67 156 0.0 1.0 0.01 0.02 0.01 90 1015.6
20260901083704 67 156 0.0 0.0 0.01 0.02 0.01 90 1015.6
20260901083204 67 156 0.0 0.0 0.01 0.02 0.01 90 1015.6
20260901082703 67 156 0.0 0.0 0.01 0.02 0.01 90 1015.5
20260901082204 67 156 0.0 0.0 0.01 0.02 0.01 90 1015.7
20260901081203 67 156 0.0 0.0 0.01 0.02 0.01 90 1015.9
20260901080703 67 156 0.0 1.0 0.01 0.02 0.01 90 1016.0
20260901075705 67 156 0.0 1.0 0.00 0.01 0.00 90 1016.0
20260901075204 67 156 0.0 0.0 0.00 0.01 0.00 90 1016.0
20260901074704 67 156 0.0 0.0 0.00 0.01 0.00 90 1016.0
20260901074204 67 156 0.0 1.0 0.00 0.01 0.00 90 1016.0
20260901073703 67 156 0.0 1.0 0.00 0.01 0.00 90 1016.1
20260901072703 67 156 0.0 0.0 0.00 0.01 0.00 89 1016.1
20260901072203 67 156 0.0 0.0 0.00 0.01 0.00 89 1016.2
20260901071703 67 156 0.0 1.0 0.00 0.01 0.00 89 1016.2
20260901071203 67 156 0.0 0.0 0.00 0.01 0.00 89 1016.0
20260901070204 67 156 0.0 0.0 0.00 0.01 0.00 89 1016.0
20260901065704 67 156 0.0 0.0 0.00 0.01 0.00 89 1016.1
20260901065204 67 156 0.0 0.0 0.00 0.01 0.00 89 1016.1
20260901064704 67 156 0.0 0.0 0.00 0.01 0.00 89 1016.3
20260901063704 67 156 0.0 0.0 0.00 0.01 0.00 89 1016.5
20260901063204 67 156 0.0 1.0 0.00 0.01 0.00 89 1016.6
20260901062704 67 156 0.0 1.0 0.00 0.01 0.00 89 1016.8
20260901062204 67 156 0.0 1.0 0.00 0.01 0.00 89 1016.9
20260901061704 67 156 0.0 1.0 0.00 0.01 0.00 89 1016.9
20260901061204 67 156 1.0 2.0 0.00 0.01 0.00 89 1016.9
20260901060204 67 156 0.0 1.0 0.00 0.01 0.00 89 1016.8
20260901055705 67 156 0.0 1.0 0.00 0.01 0.00 89 1016.7
20260901055204 67 156 0.0 0.0 0.00 0.01 0.00 89 1016.7
20260901054204 67 156 0.0 1.0 0.00 0.01 0.00 89 1016.8
20260901053704 67 156 1.0 1.0 0.00 0.01 0.00 89 1016.6
20260901053204 67 156 0.0 1.0 0.00 0.01 0.00 89 1016.5
20260901052704 67 156 0.0 0.0 0.00 0.01 0.00 89 1016.6
20260901052205 67 156 0.0 0.0 0.00 0.01 0.00 89 1016.9
20260901051704 67 156 0.0 0.0 0.00 0.01 0.00 89 1017.2
20260901050704 67 156 0.0 0.0 0.00 0.01 0.00 89 1017.3
20260901050203 67 156 0.0 0.0 0.00 0.01 0.00 89 1017.3
20260901045704 67 156 0.0 1.0 0.00 0.01 0.00 89 1017.4
20260901045204 67 156 0.0 0.0 0.00 0.01 0.00 89 1017.3
20260901044704 67 156 0.0 1.0 0.00 0.01 0.00 89 1017.3
20260901044204 67 156 0.0 1.0 0.00 0.01 0.00 89 1017.3
20260901043704 67 156 0.0 2.0 0.00 0.01 0.00 89 1017.1
20260901042704 67 156 0.0 1.0 0.00 0.01 0.00 89 1017.1
20260901041204 67 156 0.0 1.0 0.00 0.01 0.00 89 1017.1
20260901040704 67 156 0.0 1.0 0.00 0.01 0.00 89 1017.1
20260901040204 67 156 0.0 0.0 0.00 0.01 0.00 89 1017.1
20260901035704 67 156 0.0 0.0 0.00 0.01 0.01 89 1017.1
20260901035204 67 156 0.0 0.0 0.00 0.01 0.01 89 1017.2
20260901034704 67 156 0.0 0.0 0.00 0.01 0.01 89 1017.4
20260901033704 67 156 0.0 0.0 0.00 0.01 0.01 89 1017.5
20260901033204 67 156 0.0 0.0 0.00 0.01 0.01 89 1017.5
20260901032704 67 156 0.0 0.0 0.00 0.01 0.01 89 1017.5
20260901032204 67 156 0.0 0.0 0.00 0.01 0.01 88 1017.6
20260901031704 67 156 0.0 0.0 0.00 0.01 0.01 88 1017.6
20260901031205 67 156 0.0 0.0 0.00 0.01 0.01 88 1017.6
20260901030704 67 156 0.0 0.0 0.00 0.01 0.01 88 1017.6
20260901030205 67 156 0.0 0.0 0.00 0.01 0.01 88 1017.6
20260901025704 67 156 0.0 0.0 0.00 0.01 0.01 88 1017.7
20260901024704 67 156 0.0 0.0 0.00 0.01 0.01 88 1017.8
20260901023704 67 156 0.0 1.0 0.00 0.01 0.01 88 1017.8
20260901023204 67 156 0.0 1.0 0.00 0.01 0.01 88 1017.9
20260901022704 67 156 0.0 0.0 0.00 0.01 0.01 88 1017.9
20260901022205 67 156 0.0 0.0 0.00 0.01 0.01 88 1018.0
20260901021204 67 156 0.0 1.0 0.00 0.01 0.01 87 1018.0
20260901020703 67 156 0.0 1.0 0.00 0.01 0.01 87 1018.0
20260901020203 67 156 0.0 1.0 0.00 0.01 0.01 87 1018.0
20260901015704 67 156 0.0 1.0 0.00 0.01 0.01 87 1017.9
20260901015204 67 156 0.0 2.0 0.00 0.01 0.01 87 1017.8
20260901014204 67 156 0.0 1.0 0.00 0.01 0.01 87 1017.7
20260901013204 68 156 0.0 1.0 0.00 0.01 0.01 87 1017.8
20260901012703 67 156 0.0 1.0 0.00 0.01 0.01 87 1017.8
20260901012206 67 156 0.0 2.0 0.01 0.01 0.01 87 1017.8
20260901011704 67 156 1.0 2.0 0.01 0.01 0.01 87 1018.0
20260901011204 67 237 0.0 1.0 0.01 0.01 0.01 87 1018.0
20260901010705 67 237 0.0 1.0 0.01 0.01 0.01 87 1018.0
20260901010204 67 237 0.0 2.0 0.01 0.01 0.01 86 1018.0
20260901004704 68 234 0.0 1.0 0.01 0.01 0.01 86 1018.0
20260901004204 68 234 1.0 3.0 0.01 0.01 0.01 86 1018.0
20260901003704 69 234 1.0 3.0 0.01 0.01 0.01 85 1018.0
20260901003205 69 232 1.0 2.0 0.01 0.01 0.01 85 1018.0
20260901002705 69 232 0.0 2.0 0.01 0.01 0.01 85 1017.9
20260901002204 69 232 0.0 2.0 0.00 0.00 0.00 84 1017.8
20260901001204 70 232 0.0 0.0 0.00 0.00 0.00 85 1017.8
20260901000704 70 232 0.0 0.0 0.00 0.00 0.00 84 1017.7
20260831235704 70 232 0.0 0.0 0.00 0.00 0.00 84 1017.6
20260831234204 71 232 0.0 0.0 0.00 0.01 0.00 84 1017.6
20260831233703 71 232 0.0 0.0 0.00 0.02 0.00 83 1017.6
20260831233204 71 232 0.0 0.0 0.00 0.05 0.00 83 1017.6
20260831232703 71 232 0.0 0.0 0.00 0.05 0.00 83 1017.6
20260831231704 71 232 0.0 0.0 0.00 0.05 0.00 83 1017.6
20260831231204 72 232 0.0 0.0 0.00 0.05 0.00 83 1017.7
20260831230704 72 232 0.0 0.0 0.00 0.05 0.00 82 1017.7
20260831230204 72 232 0.0 0.0 0.00 0.05 0.00 82 1017.7
20260831225704 72 232 0.0 0.0 0.00 0.05 0.00 82 1017.8
20260831224203 72 232 0.0 1.0 0.00 0.05 0.00 81 1017.9
20260831223204 73 232 0.0 0.0 0.00 0.05 0.00 80 1017.9
20260831222705 73 232 0.0 0.0 0.00 0.05 0.00 80 1017.9
20260831222204 73 232 0.0 0.0 0.00 0.05 0.00 80 1018.1
20260831221703 73 232 0.0 1.0 0.00 0.05 0.00 79 1018.2
20260831220704 73 232 0.0 0.0 0.00 0.05 0.00 79 1018.1
20260831220204 73 232 0.0 1.0 0.00 0.05 0.00 78 1018.1
20260831215704 73 232 1.0 1.0 0.00 0.05 0.00 78 1018.1
20260831215204 73 232 0.0 0.0 0.00 0.05 0.00 79 1018.1
20260831214704 73 232 0.0 0.0 0.00 0.05 0.00 80 1018.1
20260831214203 74 232 0.0 0.0 0.00 0.05 0.00 79 1018.1
20260831213704 74 232 0.0 0.0 0.00 0.05 0.00 78 1018.1
20260831212204 74 232 0.0 0.0 0.00 0.05 0.00 77 1018.1
20260831211704 74 232 0.0 0.0 0.00 0.05 0.00 78 1018.0
20260831211205 74 232 0.0 0.0 0.00 0.05 0.00 78 1018.1
20260831210705 74 232 0.0 0.0 0.00 0.05 0.00 77 1018.0
20260831210204 74 232 0.0 0.0 0.00 0.05 0.00 77 1018.0
20260831205704 74 232 0.0 0.0 0.00 0.05 0.00 76 1018.0
20260831205205 74 232 0.0 1.0 0.00 0.05 0.00 77 1017.9
20260831204705 74 232 0.0 1.0 0.00 0.05 0.00 77 1017.9
20260831204206 74 232 0.0 1.0 0.00 0.05 0.00 76 1017.9
20260831203704 74 232 1.0 2.0 0.00 0.05 0.00 75 1018.1
20260831203204 74 232 0.0 1.0 0.00 0.05 0.00 76 1018.1
20260831202705 74 232 0.0 2.0 0.00 0.05 0.00 76 1018.0
20260831202207 74 232 0.0 2.0 0.00 0.05 0.00 78 1018.1
20260831201204 73 245 0.0 0.0 0.00 0.05 0.00 80 1018.0
20260831200204 73 245 0.0 0.0 0.00 0.05 0.00 80 1018.1
20260831195704 73 245 0.0 0.0 0.00 0.05 0.00 79 1018.1
20260831195203 73 245 0.0 0.0 0.00 0.05 0.00 79 1018.2
20260831193703 73 245 0.0 0.0 0.00 0.05 0.00 77 1018.4
20260831193204 73 245 0.0 0.0 0.00 0.05 0.00 77 1018.5
20260831192704 73 245 0.0 0.0 0.00 0.05 0.00 76 1018.6
20260831191704 74 245 0.0 1.0 0.00 0.05 0.00 75 1018.7
20260831191204 74 245 0.0 1.0 0.00 0.05 0.00 75 1018.7
20260831190204 75 245 1.0 3.0 0.00 0.05 0.00 75 1018.6
20260831185704 75 245 0.0 2.0 0.00 0.05 0.00 75 1018.4
20260831185204 74 245 0.0 1.0 0.00 0.05 0.00 76 1018.4
20260831184204 74 245 0.0 0.0 0.00 0.05 0.00 77 1018.6
20260831183704 74 245 0.0 0.0 0.00 0.05 0.00 78 1018.7
20260831183204 73 245 0.0 0.0 0.00 0.05 0.00 78 1018.8
20260831182704 74 245 0.0 0.0 0.00 0.05 0.00 78 1018.9
20260831182205 74 245 0.0 0.0 0.00 0.05 0.00 77 1019.1
20260831181704 74 245 0.0 0.0 0.00 0.05 0.00 75 1019.1
20260831181204 74 245 0.0 0.0 0.00 0.05 0.00 72 1019.0
20260831180704 74 245 0.0 0.0 0.00 0.05 0.00 71 1018.9
20260831175704 75 245 1.0 3.0 0.00 0.05 0.00 71 1019.0
20260831175204 75 245 0.0 1.0 0.00 0.05 0.00 71 1018.9
20260831174704 75 245 1.0 2.0 0.00 0.05 0.00 70 1019.0
20260831174204 75 245 1.0 2.0 0.00 0.05 0.00 71 1019.0
20260831173704 75 245 0.0 1.0 0.00 0.05 0.00 71 1019.1
20260831172704 75 245 0.0 2.0 0.00 0.05 0.00 71 1019.2
20260831172204 75 245 0.0 1.0 0.00 0.05 0.00 68 1019.2
20260831171705 76 245 0.0 0.0 0.00 0.05 0.00 68 1019.4
20260831171204 76 245 1.0 6.0 0.00 0.05 0.00 67 1019.5
20260831170704 76 240 2.0 5.0 0.00 0.05 0.00 67 1019.4
20260831170204 77 212 1.0 3.0 0.00 0.05 0.00 68 1019.4
20260831165204 76 212 0.0 1.0 0.00 0.05 0.00 69 1019.5
20260831164204 75 212 1.0 3.0 0.00 0.05 0.00 66 1019.5
20260831163704 76 212 1.0 2.0 0.00 0.05 0.00 67 1019.5
20260831162704 76 210 1.0 3.0 0.00 0.05 0.00 66 1019.6
20260831162206 76 209 1.0 3.0 0.00 0.05 0.00 67 1020.0
20260831161704 75 207 1.0 3.0 0.00 0.05 0.00 67 1019.8
20260831161204 75 230 1.0 3.0 0.00 0.05 0.00 66 1019.9
20260831160204 76 230 1.0 3.0 0.00 0.05 0.00 66 1020.0
20260831155704 76 228 2.0 3.0 0.00 0.05 0.00 67 1020.1
20260831155204 75 222 0.0 2.0 0.00 0.05 0.00 67 1020.1
20260831154703 75 220 0.0 2.0 0.00 0.05 0.00 67 1019.9
20260831154204 75 220 2.0 5.0 0.00 0.05 0.00 69 1020.0
20260831153703 74 223 1.0 3.0 0.00 0.05 0.00 71 1020.0
20260831153204 74 227 1.0 3.0 0.00 0.05 0.00 72 1020.2
20260831152704 74 231 2.0 3.0 0.00 0.05 0.00 73 1020.1
20260831152204 73 232 1.0 3.0 0.00 0.05 0.00 74 1020.2
20260831151705 73 193 1.0 3.0 0.00 0.05 0.00 74 1020.0
20260831151204 73 191 1.0 2.0 0.00 0.05 0.00 75 1020.0
20260831150704 72 191 1.0 2.0 0.00 0.05 0.00 75 1020.0
20260831150204 73 191 1.0 3.0 0.00 0.05 0.00 74 1020.0
20260831145704 73 189 1.0 2.0 0.00 0.05 0.00 74 1020.0
20260831145204 73 189 1.0 2.0 0.00 0.05 0.00 73 1020.1
20260831144704 73 189 1.0 3.0 0.00 0.05 0.00 73 1020.0
20260831144204 73 93 0.0 2.0 0.00 0.05 0.00 71 1020.0
20260831143204 73 87 0.0 2.0 0.00 0.05 0.00 71 1020.0
20260831142704 73 87 0.0 2.0 0.00 0.05 0.00 74 1020.0
20260831142204 72 91 0.0 2.0 0.00 0.05 0.00 76 1019.9
20260831141703 72 91 0.0 2.0 0.00 0.05 0.00 75 1019.9